This is the latest recevied weather packets stored in our database for station/object KR8N. If no packets are shown the sender has not sent any weather packets the latest 10 day(s).
| Time | Temp. | Humidity | Pressure | Rain* | Wind** | Luminosity | Snow |
|---|---|---|---|---|---|---|---|
| 1777160770 | 18.89° C | 69% | 1014 hPa | 0 mm | - | 31 W/m² | - |
| 1777160464 | 18.89° C | 67% | 1013.9 hPa | 0 mm | - | 41 W/m² | - |
| 1777160161 | 18.89° C | 68% | 1013.9 hPa | 0 mm | - | 43 W/m² | - |
| 1777159856 | 18.89° C | 68% | 1014.1 hPa | 0 mm | - | 54 W/m² | - |
| 1777159553 | 18.89° C | 69% | 1014 hPa | 0 mm | - | 75 W/m² | - |
| 1777159250 | 18.89° C | 70% | 1014 hPa | 0 mm | - | 80 W/m² | - |
| 1777158946 | 18.89° C | 70% | 1014 hPa | 0 mm | - | 112 W/m² | - |
| 1777158645 | 18.33° C | 73% | 1013.8 hPa | 0 mm | - | 99 W/m² | - |
| 1777158341 | 18.33° C | 73% | 1013.9 hPa | 0 mm | - | 94 W/m² | - |
| 1777158037 | 18.33° C | 73% | 1013.8 hPa | 0 mm | - | 88 W/m² | - |
| 1777157733 | 18.33° C | 73% | 1013.8 hPa | 0 mm | - | 97 W/m² | - |
| 1777157429 | 17.78° C | 74% | 1014 hPa | 0 mm | - | 111 W/m² | - |
| 1777157125 | 18.33° C | 74% | 1013.8 hPa | 0 mm | - | 119 W/m² | - |
| 1777156821 | 18.33° C | 73% | 1013.9 hPa | 0 mm | - | 117 W/m² | - |
| 1777156520 | 18.33° C | 74% | 1014 hPa | 0 mm | - | 100 W/m² | - |
| 1777156218 | 18.33° C | 73% | 1014 hPa | 0 mm | - | 107 W/m² | - |
| 1777155913 | 18.33° C | 72% | 1014.1 hPa | 0 mm | - | 102 W/m² | - |
| 1777155608 | 18.33° C | 72% | 1013.9 hPa | 0 mm | - | 84 W/m² | - |
| 1777155306 | 18.89° C | 70% | 1013.8 hPa | 0 mm | - | 100 W/m² | - |
| 1777155003 | 18.89° C | 70% | 1013.9 hPa | 0 mm | - | 166 W/m² | - |
| 1777154700 | 18.89° C | 70% | 1013.8 hPa | 0 mm | - | 151 W/m² | - |
| 1777154396 | 18.89° C | 72% | 1013.9 hPa | 0 mm | - | 164 W/m² | - |
| 1777154092 | 18.89° C | 72% | 1013.6 hPa | 0 mm | - | 187 W/m² | - |
| 1777153788 | 18.33° C | 72% | 1013.6 hPa | 0 mm | - | 165 W/m² | - |
| 1777153484 | 18.89° C | 71% | 1013.5 hPa | 0 mm | - | 105 W/m² | - |
* Rain latest hour (hover to see other rain measurements)
** Current wind speed in m/s (hover to see current wind gust speed)